GFSFLT2_prec_cthk_000.txt.gz
RH
35 35 34 33 32 33 32 32 32 31 39 45 49 47 50 48 43 43 42 44 52 54 52 58 53 54 57 60 66 63 66 68
30 29 30 31 31 32 31 30 31 29 27 29 39 52 60 59 68 66 59 58 60 63 60 59 62 62 68 68 73 73 73 71
29 30 30 32 34 33 31 29 28 30 31 32 35 39 55 73 75 80 80 79 75 70 66 66 65 62 64 65 66 71 80 79
27 29 32 34 34 31 32 35 37 37 39 40 40 47 53 66 85 95 97 92 91 92 86 78 72 70 65 67 69 70 79 80
26 30 36 41 36 39 41 39 40 44 44 44 47 50 56 68 77 87 92 93 96 91 99 97 88 83 75 73 74 75 77 83
37 36 37 37 36 36 37 36 35 36 40 44 48 52 55 54 57 69 86 93 94 92 94 93 95 90 80 78 82 89 87 89
27 26 24 24 24 23 23 24 24 24 23 22 20 19 19 21 25 32 49 69 87 84 80 87 90 86 82 75 77 79 81 84
20 20 21 21 20 18 17 16 16 17 17 14 13 13 14 16 18 22 28 35 44 56 67 73 76 83 83 81 83 80 75 76
18 18 17 16 16 16 16 15 16 17 16 17 17 17 16 15 15 16 19 21 26 34 40 54 55 65 64 73 74 70 70 66
19 19 19 19 18 18 18 19 20 21 21 22 22 21 19 20 20 18 17 17 18 23 28 32 42 60 56 57 54 63 64 68
21 21 21 21 21 21 22 22 24 24 25 26 26 25 25 26 26 24 22 19 17 19 24 30 30 31 40 48 48 44 51 60
27 27 27 27 27 28 29 30 32 33 34 33 31 32 31 32 32 29 29 28 25 21 20 22 28 31 30 31 36 42 51 49
33 34 34 35 37 39 39 38 38 40 40 38 39 39 39 39 38 38 34 32 31 30 27 25 23 24 25 31 31 33 42 46
35 36 37 39 41 43 43 42 44 44 44 46 47 47 49 47 46 45 42 36 34 33 32 31 31 29 25 23 31 37 40 44
38 39 41 42 43 46 47 48 47 48 50 52 55 56 57 56 53 50 47 47 45 39 37 36 34 33 33 33 29 34 36 40
42 44 46 49 51 52 51 51 52 55 57 59 64 64 60 56 54 54 53 52 50 50 47 41 39 38 36 35 37 30 27 25
42 46 49 50 50 51 54 58 63 66 67 67 67 66 59 57 57 60 60 57 57 55 53 49 47 45 42 40 37 37 31 31
46 48 50 51 52 55 58 63 71 73 71 69 68 68 64 62 61 60 60 59 59 58 54 54 52 50 49 48 44 40 36 33
49 51 55 57 59 60 62 70 74 74 72 69 68 70 64 66 66 62 58 55 51 49 48 46 43 41 44 45 46 42 42 37
55 58 60 63 66 67 73 75 76 72 72 72 72 65 64 62 58 54 48 42 38 35 32 31 33 33 35 38 43 42 39 39

GFSFLT2_prec_cthk_003.txt.gz
RH
39 32 26 25 29 28 30 33 35 36 37 38 41 41 44 38 34 41 49 42 57 64 53 56 57 61 50 49 47 53 53 62
30 31 34 32 33 30 31 33 35 38 36 33 33 34 31 34 36 39 47 58 58 61 70 66 55 58 57 56 60 64 62 70
24 28 29 31 33 35 36 36 34 33 31 32 32 37 31 34 36 39 49 60 66 68 70 75 68 61 62 66 70 72 73 72
27 25 28 30 37 36 38 39 41 42 40 38 42 40 44 47 48 51 53 60 70 75 82 80 80 82 80 75 73 74 74 76
33 34 36 39 44 43 47 38 40 39 35 35 33 33 34 37 39 48 43 44 60 62 78 91 91 92 94 94 84 80 78 77
34 30 28 30 37 37 35 33 30 30 28 25 19 16 12 11 12 15 20 26 29 42 78 92 93 93 91 96 94 90 84 79
23 20 22 24 28 28 28 26 25 22 23 19 23 20 13 14 13 14 16 17 19 25 52 69 90 89 86 92 92 88 83 80
19 20 21 22 23 22 20 20 19 20 20 18 17 18 16 24 21 19 20 21 23 25 29 46 61 61 82 85 89 90 88 81
17 18 18 18 18 18 20 19 20 22 22 19 19 21 20 19 23 26 24 20 20 20 21 23 28 47 56 73 82 81 76 79
21 21 22 22 23 22 23 22 23 25 26 23 22 22 23 23 28 27 25 26 25 23 24 23 26 29 36 47 59 58 71 62
27 28 29 30 30 31 32 30 30 31 33 34 30 30 29 29 32 32 30 34 32 29 29 26 27 33 31 33 41 41 59 50
29 32 32 34 35 35 36 38 41 41 43 42 41 41 40 40 40 40 42 43 41 39 37 34 31 29 28 24 27 33 35 45
31 32 33 35 35 37 40 44 45 47 45 45 46 46 45 46 49 50 50 51 51 50 47 44 40 37 34 30 27 23 24 32
31 32 34 36 37 39 41 44 47 51 52 50 51 53 56 57 57 58 58 57 58 56 53 51 48 45 42 39 36 34 38 43
35 36 38 38 40 41 44 46 47 48 49 51 55 59 64 67 70 70 68 67 66 64 62 59 52 51 49 46 42 40 38 35
37 39 39 41 44 47 49 52 54 57 58 59 63 68 72 76 77 77 76 76 75 72 68 64 62 58 55 53 48 44 42 35
40 42 44 46 48 51 54 55 61 64 65 71 77 80 81 79 81 81 79 77 76 73 72 70 69 65 66 61 56 51 48 43
47 48 49 51 55 57 60 61 66 71 72 77 83 80 82 81 81 82 81 77 76 74 72 69 67 64 62 62 61 59 56 53
53 55 57 58 59 62 65 68 72 74 73 76 80 76 74 77 77 71 70 69 68 64 62 57 52 51 51 49 47 45 47 49
58 59 60 64 65 67 71 74 76 75 74 79 83 79 79 75 72 71 72 70 66 61 53 47 42 40 38 36 36 36 35 36

GFSFLT2_prec_cthk_006.txt.gz
RH
44 34 31 27 25 26 24 25 26 29 32 33 37 35 31 30 31 29 24 21 23 33 39 49 60 68 62 58 49 40 40 44
34 34 31 23 23 25 25 29 32 32 30 30 32 32 31 29 30 33 35 34 33 36 43 50 55 55 58 57 57 47 44 47
23 26 29 27 35 29 30 33 31 31 33 33 38 40 40 40 38 45 49 52 55 58 57 53 53 57 59 66 58 60 59 60
28 28 31 34 44 45 47 42 41 42 44 38 40 40 39 37 33 35 38 40 41 46 59 63 62 63 64 61 67 61 64 71
35 33 31 35 45 46 52 38 35 35 31 32 31 26 21 19 17 18 18 15 19 21 35 47 46 54 74 78 77 73 67 69
24 21 17 17 22 27 30 26 24 25 22 18 18 17 14 12 12 12 11 12 13 13 14 18 27 42 86 93 93 90 81 80
19 14 13 15 18 20 22 22 19 19 16 16 19 20 16 16 15 15 15 16 17 17 17 18 20 31 52 87 82 89 92 89
19 15 14 16 21 18 18 18 17 17 19 18 18 21 21 26 25 23 21 20 21 25 27 27 25 25 31 43 67 75 85 89
19 18 20 22 23 24 24 24 25 26 25 22 22 22 23 24 25 28 28 23 23 22 23 26 29 30 27 34 50 61 72 76
22 22 24 26 28 30 31 32 33 34 34 32 30 30 31 31 34 33 30 33 34 32 30 29 30 31 33 30 31 42 57 71
26 27 28 30 32 34 34 35 36 36 39 39 39 39 41 42 43 42 40 41 41 41 40 40 40 36 34 35 36 33 37 53
27 28 28 30 31 32 34 35 37 39 39 41 41 43 43 44 46 47 47 48 47 48 48 48 47 46 43 37 31 27 27 31
28 29 30 30 33 35 36 37 39 42 45 47 48 48 48 49 52 53 54 55 56 55 54 56 54 53 50 47 42 36 33 30
31 33 34 35 36 38 39 41 43 46 49 52 52 52 52 57 58 59 63 64 64 64 65 63 61 59 56 53 49 46 41 41
37 38 38 39 39 42 43 44 49 52 53 56 55 56 62 66 69 72 72 71 72 72 70 68 67 67 65 61 56 52 51 45
42 43 44 46 47 47 51 51 52 56 59 61 64 66 70 73 76 77 80 78 80 82 80 77 74 69 66 68 65 60 58 53
46 48 50 53 55 54 54 59 59 63 67 69 71 73 75 75 79 85 88 88 83 82 74 69 71 72 70 68 66 64 63 60
51 53 54 56 58 60 59 58 63 66 68 69 71 73 76 81 83 86 83 80 81 72 70 69 68 68 68 64 61 61 61 59
56 57 57 59 61 64 65 64 64 67 70 71 73 74 78 79 79 84 83 82 74 73 73 70 67 64 61 57 53 50 50 51
64 66 66 65 67 68 69 68 68 69 73 78 78 80 81 83 87 86 81 82 85 79 74 69 65 60 55 51 49 49 48 46

GFSFLT2_prec_cthk_009.txt.gz
RH
33 32 29 26 20 21 18 19 23 27 31 32 31 30 30 30 30 29 29 28 26 26 25 27 32 35 44 64 76 71 57 49
31 28 22 21 19 21 21 25 27 27 27 28 29 30 31 32 35 37 41 44 45 45 46 44 44 44 44 40 46 57 65 52
24 26 25 25 29 32 34 37 35 32 32 34 37 39 38 34 32 33 36 40 43 42 39 46 54 55 56 53 47 48 53 62
24 27 30 28 30 30 35 37 41 25 22 22 24 25 22 21 18 18 18 19 20 22 20 28 39 47 48 44 44 52 53 60
24 22 20 21 24 26 26 27 26 25 22 20 21 19 16 13 10 11 14 17 13 18 18 18 26 30 34 30 40 56 62 60
17 17 15 15 16 18 18 20 18 16 17 17 16 14 14 14 14 13 14 14 15 17 19 20 20 20 22 30 43 58 82 76
17 17 13 13 14 17 20 21 21 21 21 19 19 20 20 19 19 20 20 20 20 21 21 22 23 27 29 30 38 56 70 82
19 19 16 15 17 21 26 28 29 29 27 26 27 27 28 26 28 27 27 27 27 27 28 28 28 27 29 35 40 40 47 56
23 24 24 23 26 28 29 30 30 30 31 31 31 31 33 33 35 34 34 34 32 32 31 31 32 34 34 33 33 34 48 51
23 24 24 25 27 28 28 29 31 31 32 34 34 34 36 37 38 39 39 39 40 41 40 38 36 36 35 37 40 39 35 45
25 25 26 27 28 30 31 31 32 33 35 36 38 38 38 39 42 42 43 43 45 49 51 50 47 44 42 41 40 39 36 33
27 28 29 32 33 35 36 36 37 38 38 40 40 43 44 44 46 49 50 51 52 53 54 55 55 54 52 49 48 47 44 40
33 33 35 36 38 40 41 41 41 42 45 47 48 50 53 53 53 53 54 57 59 61 60 60 61 61 59 57 54 52 52 48
37 39 41 43 44 44 46 47 48 49 51 53 55 56 56 55 58 59 60 61 64 66 68 68 67 66 64 61 58 56 55 54
43 45 45 46 48 49 50 51 51 53 55 58 60 60 61 61 63 66 67 69 69 71 73 74 73 69 68 66 64 63 60 61
45 47 49 51 52 52 54 56 56 58 60 63 64 64 64 66 68 73 74 74 74 75 76 75 77 74 65 66 64 63 64 61
49 52 54 57 58 59 59 60 61 64 66 67 68 68 68 72 76 79 79 80 81 85 84 81 80 76 65 68 70 67 66 64
53 55 58 57 57 59 59 61 64 69 70 70 71 72 73 75 75 79 82 85 88 91 91 88 81 73 70 66 63 61 59 61
60 63 64 62 64 67 68 69 70 70 71 72 74 74 77 80 83 87 89 88 87 88 91 89 87 82 71 66 60 56 54 51
65 72 69 66 64 66 70 72 72 73 74 72 71 74 77 82 88 92 92 89 92 94 96 86 80 77 71 67 61 56 53 52

GFSFLT2_prec_cthk_012.txt.gz
RH
30 30 29 26 20 19 19 20 20 20 20 21 21 22 22 23 23 25 27 29 30 32 33 35 36 39 38 41 50 68 74 72
31 27 24 25 24 26 29 29 30 33 28 22 25 26 29 30 30 28 28 29 31 35 39 45 53 55 53 52 46 50 70 67
32 29 31 33 31 28 28 30 33 37 27 22 21 22 24 23 21 18 17 21 23 23 23 21 27 36 51 55 59 56 50 51
32 23 20 19 19 19 18 17 19 20 18 16 15 17 17 15 14 11 11 14 16 17 17 17 19 29 38 43 45 41 40 41
26 20 16 15 16 17 18 17 17 17 17 17 17 16 16 17 15 13 14 16 17 15 19 18 18 22 26 25 26 31 30 37
23 18 17 18 17 19 20 22 23 23 25 26 27 25 24 20 19 19 19 19 18 19 21 20 20 21 20 23 26 30 36 42
20 20 21 19 21 22 26 27 29 29 29 29 29 28 29 29 28 27 27 26 26 27 27 28 28 28 26 25 28 31 37 45
19 19 22 22 23 27 31 32 32 33 34 35 33 32 33 34 34 34 34 33 32 32 30 31 31 31 31 31 30 32 41 43
24 24 24 24 24 26 30 32 32 32 32 33 33 33 34 35 36 38 39 40 41 40 40 39 39 39 38 39 39 37 37 38
27 27 27 27 28 30 32 34 35 36 37 37 38 38 38 38 39 42 42 42 43 43 44 45 45 46 46 45 45 43 39 36
31 32 32 33 34 35 36 38 40 41 42 43 43 43 45 44 44 46 48 48 48 48 50 50 51 52 53 53 52 49 48 45
33 34 35 37 39 40 41 42 44 45 46 47 48 49 52 53 52 52 54 54 55 55 56 56 57 57 56 57 57 56 53 52
37 40 42 43 44 45 46 48 48 48 50 50 51 53 56 57 58 58 58 58 58 59 60 61 62 63 64 64 63 59 59 58
44 48 49 51 50 50 51 51 51 51 53 54 55 57 59 61 63 63 63 62 62 62 63 63 64 67 67 66 64 59 56 56
47 49 53 55 53 51 50 51 51 51 53 54 57 58 60 62 64 65 66 65 65 67 67 67 66 68 70 71 68 63 56 56
47 51 55 56 54 53 53 52 53 53 54 57 60 62 62 63 65 66 67 69 73 74 73 70 67 68 74 78 77 73 67 56
54 57 59 59 57 56 54 52 53 55 57 60 62 65 66 66 66 68 69 72 74 74 75 76 75 76 75 79 81 74 73 67
59 60 64 65 65 63 61 58 57 58 61 63 65 66 66 68 69 70 72 73 78 82 84 84 85 88 88 85 81 78 71 66
67 70 75 77 78 75 69 65 63 63 66 67 70 74 75 77 74 74 78 79 79 88 89 92 96 93 94 81 78 77 73 67
74 78 78 76 74 72 68 64 63 65 65 65 65 74 77 76 78 83 78 84 93 95 94 98 98 96 91 85 79 75 72 67